This demonstration page uses our WeatherBlox Daily Observations layout. Learn more.

39.92423, -83.80882

Hourly Observations for September 27, 2018

Temp ( °F °C ) Dew Point ( °F °C ) Humidity (%) Winds ( mph kmh ) Pressure ( in mb ) Visibility ( mi km ) Precip ( " mm )
12:56 am 00:56 Clear 54 12.2 47 8.3 77 77 NNE 6 9 30.17 1022 10 16.0934 0 0
1:56 am 01:56 Clear 53 11.7 47 8.3 80 80 NNE 8 13 30.16 1021 7 11.26538 0 0
2:56 am 02:56 Clear 51 10.6 48 8.9 89 89 ESE 5 7 30.16 1021 10 16.0934 0 0
3:56 am 03:56 Clear 52 11.1 48 8.9 86 86 ENE 5 7 30.15 1021 10 16.0934 0 0
4:56 am 04:56 Clear 51 10.6 49 9.4 92 92 ENE 3 6 30.14 1021 10 16.0934 0 0
5:56 am 05:56 Clear 51 10.6 49 9.4 92 92 E 3 6 30.14 1021 10 16.0934 0 0
6:56 am 06:56 Clear 52 11.1 48 8.9 86 86 E 5 7 30.14 1021 10 16.0934 0 0
7:56 am 07:56 Sunny 52 11.1 49 9.4 89 89 Calm 30.15 1021 10 16.0934 0.02 0.508
8:56 am 08:56 Sunny 53 11.7 50 10 89 89 Calm 30.14 1021 10 16.0934 0.04 1.016
9:56 am 09:56 Sunny 56 13.3 51 10.6 84 84 E 8 13 30.11 1020 10 16.0934 0.04 1.016
10:56 am 10:56 Sunny 59 15 52 11.1 78 78 E 6 9 30.11 1020 10 16.0934 0.04 1.016
11:56 am 11:56 Sunny 62 16.7 51 10.6 67 67 ESE 12 19 30.08 1019 10 16.0934 0.04 1.016
12:56 pm 12:56 Sunny 62 16.7 51 10.6 67 67 ESE 6 9 30.09 1019 10 16.0934 0.04 1.016
1:56 pm 13:56 Sunny 62 16.7 50 10 65 65 E 5 7 30.07 1018 10 16.0934 0.03 0.762
2:56 pm 14:56 Mostly Cloudy 60 15.6 51 10.6 72 72 E 3 6 30.05 1018 10 16.0934 0.05 1.27
3:56 pm 15:56 Cloudy with Light Rain 59 15 53 11.7 81 81 NE 5 7 30.01 1016 10 16.0934 0.04 1.016
4:56 pm 16:56 Cloudy with Light Rain 59 15 53 11.7 81 81 NE 5 7 29.99 1016 10 16.0934 0.03 0.762
5:56 pm 17:56 Cloudy with Light Rain 59 15 54 12.2 83 83 Calm 30.01 1016 10 16.0934 0.02 0.508
6:56 pm 18:56 Cloudy 58 14.4 55 12.8 90 90 ESE 9 15 29.97 1015 10 16.0934 0.01 0.254
7:56 pm 19:56 Cloudy 57 13.9 53 11.7 87 87 WNW 7 11 30.03 1017 10 16.0934 0.02 0.508
8:56 pm 20:56 Cloudy 56 13.3 54 12.2 93 93 Calm 30.04 1017 10 16.0934 0.01 0.254
9:56 pm 21:56 Mostly Cloudy 55 12.8 54 12.2 96 96 Calm 30.04 1017 10 16.0934 0.01 0.254
10:56 pm 22:56 Clear 52 11.1 52 11.1 100 100 W 3 6 30.05 1018 10 16.0934 0.01 0.254
11:56 pm 23:56 Clear 51 10.6 51 10.6 100 100 SSW 3 6 30.05 1018 10 16.0934 0.01 0.254

Powered by AerisWeather